RH
6 6 6 7 7 7 8 8 8 9 10 12 13 16 17 19 22 25 28 29 32 35 38 38 37 34 28 22 19 16 15 14 14 14 15 15 17 19 21 22 22 21 20 19 18 17 17 18 18 18 19 21 22 24 25 26 26 25 23 20 22 27 30 31 30 30 28 26 24 22 18 15 16 22
6 6 6 6 6 6 6 6 7 7 7 7 8 9 10 11 13 16 21 25 28 31 34 37 40 42 40 33 27 22 19 16 15 14 13 13 14 14 16 17 19 21 21 21 20 19 19 18 18 18 18 20 21 22 23 26 27 28 26 22 19 20 24 27 27 28 29 30 29 26 20 14 14 17
6 6 6 6 6 6 6 6 6 6 6 6 6 6 7 7 8 9 10 15 20 25 29 31 35 41 43 41 36 31 26 22 20 17 15 14 13 14 13 14 14 16 18 19 20 20 20 19 18 17 18 19 19 19 20 23 27 30 30 26 22 19 19 22 23 23 25 28 30 29 24 19 15 16
6 6 6 6 6 6 6 5 5 5 5 5 5 6 5 5 6 6 6 7 10 16 20 23 27 32 36 38 40 38 33 28 25 21 19 17 15 15 14 14 14 14 14 15 16 17 18 19 18 17 17 18 19 19 19 20 23 27 30 29 27 23 19 18 19 19 20 23 27 29 28 24 19 17
6 6 6 6 6 6 5 5 5 5 5 5 5 5 5 5 5 5 5 5 6 8 12 14 17 21 24 28 32 37 37 34 30 26 22 21 19 18 16 15 15 14 14 14 13 14 15 16 17 16 16 16 17 18 19 20 20 22 25 27 27 25 21 18 18 19 20 21 22 26 28 28 25 21
6 6 6 6 5 5 5 5 5 5 5 5 5 5 4 4 5 4 4 4 4 5 7 9 10 11 14 17 20 25 30 33 33 30 27 25 23 22 20 18 17 16 15 15 14 14 13 13 14 14 14 14 15 16 17 19 19 19 20 22 22 23 21 19 18 19 21 23 24 25 28 31 30 27
5 5 5 5 5 5 5 5 5 5 5 5 4 5 5 4 4 4 4 4 4 4 5 7 7 7 8 10 12 14 18 22 26 28 28 27 26 24 23 22 21 20 19 17 16 15 15 14 13 13 13 13 14 14 14 15 16 17 18 19 21 22 22 21 20 19 20 23 26 29 31 33 34 32
5 5 5 5 5 5 5 5 5 5 5 5 5 4 5 4 4 4 4 4 4 4 4 5 6 6 6 7 8 9 11 13 16 19 21 23 25 25 25 25 24 24 23 21 18 17 16 15 15 14 14 14 13 14 14 14 14 14 14 16 18 21 23 23 22 20 18 19 22 27 32 35 37 36
4 4 4 5 5 4 4 4 4 5 4 4 4 4 4 4 4 4 4 4 4 4 4 5 6 6 6 6 7 7 8 9 10 11 13 15 18 19 21 23 24 25 25 23 21 20 18 17 16 15 15 15 14 14 14 13 13 13 13 13 14 15 19 22 23 21 19 18 18 21 27 34 39 41
4 4 4 4 4 4 4 4 4 4 4 4 4 4 4 4 4 4 4 4 4 4 4 4 5 6 5 5 5 6 7 7 7 8 9 9 11 12 13 14 17 19 22 23 23 22 22 20 19 18 17 16 16 16 15 14 13 13 13 13 12 12 13 16 20 21 20 19 18 18 21 27 34 41
4 4 4 4 4 4 3 4 4 3 3 3 3 3 3 3 3 3 3 3 3 3 4 4 5 6 5 5 5 5 6 6 6 7 7 8 8 8 8 9 10 11 13 17 20 21 23 23 22 21 20 19 17 17 17 16 15 14 13 14 13 12 10 11 13 16 19 20 20 19 18 20 25 32
4 4 4 4 4 4 4 4 4 4 4 3 3 3 3 3 3 3 3 3 3 3 3 3 4 5 5 5 5 5 5 5 5 6 6 7 7 7 7 7 7 7 8 9 12 15 18 20 21 22 22 21 20 19 18 18 17 16 15 14 15 14 12 10 10 11 13 17 19 20 20 18 19 23
4 4 4 4 4 4 4 4 4 4 4 3 3 3 3 3 3 3 3 3 3 3 3 3 3 3 4 5 5 5 5 5 5 5 5 5 6 6 6 6 6 6 7 6 7 8 10 13 16 17 19 21 22 22 21 20 19 18 17 16 16 16 15 12 11 10 10 12 15 17 19 19 18 18
3 3 3 4 3 3 3 3 3 3 3 3 3 3 3 3 3 3 4 4 3 3 3 3 3 3 3 3 4 4 4 4 4 4 5 4 5 5 5 6 6 6 6 6 6 6 6 7 9 10 13 15 17 20 21 22 22 20 19 18 17 18 18 15 13 12 11 11 12 13 14 16 17 17
4 3 3 3 3 3 3 3 3 3 3 3 3 3 3 3 3 3 3 4 3 3 3 3 3 3 3 3 3 3 3 3 4 4 4 4 4 4 5 5 5 5 5 5 5 5 5 5 5 6 7 9 11 14 17 20 23 24 23 21 19 19 20 19 16 14 13 12 12 12 12 12 13 15
3 3 3 3 3 3 3 3 3 3 3 3 3 3 3 3 3 3 3 3 3 3 3 3 3 3 3 3 3 3 3 3 3 3 3 3 3 4 4 4 5 5 5 4 4 5 5 4 4 4 5 6 7 8 10 14 18 22 25 25 24 22 22 21 19 16 15 14 13 13 12 12 11 12
4 3 3 3 3 3 3 3 3 3 3 3 3 3 3 3 3 3 3 3 3 3 3 3 3 3 3 3 3 3 3 3 3 3 3 3 3 3 3 4 4 5 4 4 4 4 5 5 4 4 4 4 5 6 7 8 10 15 20 24 25 24 23 23 22 19 16 15 15 14 14 13 12 12
4 3 3 3 3 3 3 3 3 3 3 3 3 3 3 3 3 3 3 3 3 3 3 2 3 3 3 3 3 3 3 2 3 3 3 3 2 3 3 3 4 4 4 4 4 4 4 4 4 4 4 4 4 4 5 5 7 8 11 15 19 20 21 23 24 23 19 16 15 16 15 14 14 14
4 4 3 3 4 3 3 3 3 3 3 3 3 3 3 3 3 3 3 3 3 3 3 3 3 2 2 3 2 2 2 2 3 3 3 3 2 2 3 3 3 3 4 4 4 4 4 5 4 4 4 4 4 4 4 4 5 5 7 9 11 13 15 18 21 23 20 16 14 14 15 15 15 15
4 4 4 4 4 3 3 3 3 3 3 3 3 3 3 3 3 3 3 3 3 3 2 2 2 2 2 2 2 2 2 2 3 3 3 3 3 3 3 3 3 3 3 3 3 4 4 5 4 4 4 4 4 3 4 4 4 4 5 6 7 8 10 11 14 17 17 15 13 12 12 13 14 16
4 4 4 4 3 3 3 3 3 3 3 3 3 3 3 3 3 3 3 3 3 3 3 3 3 3 3 2 2 3 2 2 2 2 3 3 3 3 3 3 3 3 3 3 3 3 4 4 4 4 4 4 4 3 3 3 4 4 4 5 6 6 6 7 9 11 12 12 11 9 10 11 11 13
4 4 4 4 3 3 3 3 3 3 3 3 3 3 3 3 3 3 3 3 3 3 3 3 3 3 3 2 2 2 2 2 2 2 2 2 3 3 3 3 3 3 3 3 3 3 3 3 3 3 4 4 4 4 4 4 3 4 4 5 5 5 5 6 6 6 7 8 8 7 7 8 9 11
4 4 4 4 3 3 3 3 3 3 3 3 3 3 3 3 3 3 3 3 3 3 3 3 3 3 3 2 2 2 2 2 2 2 2 2 2 2 3 3 3 3 3 3 3 3 3 3 3 3 3 4 4 4 4 4 4 4 4 4 4 5 4 4 4 5 5 6 6 6 6 6 7 9
4 4 3 3 3 3 3 3 3 3 3 3 3 3 3 3 3 3 3 3 3 3 3 3 3 3 3 2 2 2 2 2 2 2 2 3 2 2 3 3 3 3 3 3 3 3 3 3 3 3 3 3 3 3 4 4 4 4 4 3 3 4 4 4 4 4 4 4 4 4 5 5 6 7
4 4 3 3 3 3 3 3 3 3 3 3 3 3 3 3 3 3 3 3 3 3 3 3 3 3 3 3 2 2 2 2 2 2 2 2 2 2 3 3 3 3 3 3 3 3 3 3 2 3 3 3 3 3 3 3 4 4 4 4 3 3 3 3 3 4 4 4 4 4 4 5 5 6
4 3 3 3 3 4 4 3 3 3 3 3 3 3 3 3 3 3 3 3 3 3 3 3 3 3 3 3 3 3 3 2 2 2 2 2 2 2 3 3 3 3 3 3 3 3 3 3 3 2 3 3 3 3 3 3 3 3 4 4 4 3 3 3 3 3 4 4 4 4 4 4 5 5
4 3 3 3 3 3 4 4 3 4 4 3 3 3 3 3 3 3 3 3 3 3 3 3 3 3 3 3 3 3 3 2 3 2 2 2 2 2 3 2 2 3 3 2 3 3 3 3 3 3 3 3 3 3 3 3 3 3 3 3 4 4 4 4 4 4 4 4 4 4 4 4 4 4
3 4 3 3 4 3 3 3 3 3 4 3 4 4 3 3 3 3 3 3 3 3 3 3 3 3 3 3 3 3 3 3 3 3 2 2 2 2 2 2 2 2 2 2 2 3 3 3 3 3 3 3 3 3 3 3 3 3 3 3 3 4 4 4 4 4 4 4 4 4 4 4 4 4
4 4 4 3 4 4 3 3 3 3 4 4 4 4 4 4 4 3 3 3 3 3 3 3 3 3 3 3 3 3 3 3 3 3 2 2 2 2 2 2 2 2 2 2 3 3 3 3 3 3 3 3 3 3 3 3 3 3 3 3 3 4 4 4 4 4 4 5 4 4 4 4 4 4
4 4 4 4 4 3 3 4 3 3 4 4 4 4 4 4 4 3 3 3 3 3 3 3 3 3 3 3 3 3 3 4 3 3 3 2 2 2 2 2 2 2 2 3 3 3 3 2 2 3 3 3 3 3 3 3 3 3 3 3 3 3 3 3 3 4 4 4 4 4 4 4 4 4
4 4 4 4 4 4 3 3 3 3 4 4 4 4 4 4 4 3 3 3 3 3 3 3 3 3 3 3 3 3 3 3 3 3 3 3 2 2 2 2 2 2 2 3 3 3 3 3 2 3 3 3 3 3 3 3 3 3 2 3 3 3 3 3 3 3 3 4 4 4 5 4 4 4
4 4 4 4 4 4 4 3 4 4 4 4 4 4 4 4 4 4 3 3 3 3 3 3 3 3 3 3 3 3 3 3 3 3 3 3 3 2 2 2 2 3 2 3 3 3 3 3 3 3 3 3 3 3 3 3 3 3 3 3 3 3 3 3 3 3 3 3 4 4 4 4 4 4
4 4 4 4 4 4 4 3 3 4 4 4 4 4 4 4 4 4 4 3 3 3 3 3 3 3 3 3 3 3 3 3 3 3 3 3 3 3 2 2 2 3 3 3 3 3 3 3 3 3 3 3 3 3 3 3 3 3 3 3 3 3 3 3 3 3 3 3 3 4 4 4 4 4
4 4 4 4 4 4 4 4 3 3 3 4 4 4 4 4 4 4 4 4 3 3 3 3 3 3 3 3 3 3 3 3 3 3 3 3 3 3 3 3 2 3 3 3 3 3 3 3 3 3 3 3 3 3 3 3 3 3 3 3 3 3 3 4 3 3 3 3 3 3 3 3 4 4
5 5 5 5 4 4 4 4 4 4 4 4 4 4 4 4 4 5 4 4 4 3 3 3 3 3 3 4 3 3 3 3 3 3 3 3 3 3 3 3 3 3 3 3 3 3 3 3 3 3 3 3 3 3 3 3 3 3 3 3 3 3 3 4 4 4 4 3 3 3 3 3 3 4
5 5 6 6 5 5 5 5 4 4 4 4 4 4 4 4 4 4 5 5 4 4 4 3 3 4 4 4 4 3 3 3 3 3 3 3 3 3 3 3 3 3 3 3 3 3 3 3 3 3 3 3 3 3 3 3 3 3 3 3 3 3 3 3 3 4 3 4 3 3 4 4 4 4
5 6 6 6 6 5 5 5 5 5 5 4 4 4 4 4 4 4 5 5 4 4 4 4 4 4 4 4 4 4 3 3 3 3 3 3 3 3 3 3 3 3 3 3 3 3 3 3 3 3 3 3 3 3 3 3 3 3 3 3 3 3 4 3 4 4 4 4 4 4 4 4 4 4
6 6 5 6 6 6 5 5 5 5 5 5 5 5 5 4 5 5 5 5 5 4 4 4 4 4 4 4 4 4 4 4 4 3 3 3 3 3 3 3 3 3 3 3 3 3 3 3 3 3 3 3 3 3 3 3 3 3 3 3 3 3 4 4 4 4 4 4 4 4 4 4 4 4
5 5 5 5 6 6 5 5 5 5 5 5 5 5 5 5 5 5 5 5 5 5 4 4 4 4 4 4 4 4 4 4 4 4 3 3 3 4 3 3 4 4 4 4 3 3 3 3 3 3 3 3 3 3 3 3 3 3 3 4 4 4 4 4 4 4 4 4 4 4 4 4 4 4
5 5 6 6 6 6 6 5 5 5 5 5 5 5 5 5 5 5 5 5 5 5 5 5 4 4 4 4 4 4 4 4 4 4 4 3 3 4 4 4 4 4 3 3 3 3 3 3 3 3 3 3 3 3 4 3 4 4 4 4 4 4 4 4 4 4 4 4 4 4 4 4 4 4
5 5 6 6 6 6 6 6 6 6 5 5 5 5 5 5 5 5 5 5 5 5 5 5 5 4 4 4 4 4 4 4 4 4 4 4 4 4 4 4 4 4 4 4 4 4 3 4 4 4 4 4 4 4 4 4 4 4 4 4 4 4 4 4 5 5 4 4 4 4 4 4 4 4
6 6 6 6 6 6 6 6 6 6 6 6 6 5 6 5 5 5 5 5 5 5 5 5 5 5 5 5 4 4 4 4 4 4 4 4 4 4 4 4 4 4 4 4 4 4 4 4 4 4 4 4 4 4 4 4 4 4 4 4 4 4 5 5 5 5 5 5 5 5 5 5 5 5
6 6 6 6 6 6 6 6 6 6 6 6 6 6 6 6 6 6 6 6 6 5 5 5 5 5 5 5 4 4 4 4 4 4 4 4 4 4 4 4 4 4 4 4 4 5 5 4 4 4 4 4 4 4 4 4 4 4 4 5 5 5 5 5 5 5 5 5 5 5 5 5 5 5
6 7 7 7 7 7 7 7 7 7 7 7 6 6 6 6 6 6 6 6 6 6 5 6 5 5 5 5 4 5 5 4 5 5 5 4 5 4 4 5 5 4 5 5 5 5 5 5 5 5 4 4 4 4 4 4 5 5 5 5 5 5 5 5 5 6 6 6 5 5 5 5 5 5
6 7 7 7 7 7 7 7 7 7 7 7 7 7 7 6 6 7 6 6 6 6 6 6 6 5 5 5 5 5 5 5 5 5 5 5 5 5 5 5 5 5 5 5 5 5 5 5 5 5 5 5 5 5 5 5 5 5 5 5 5 5 6 6 6 6 6 6 6 6 6 6 6 6
Wind_Speed
129 130 130 131 132 133 134 135 136 137 137 138 139 140 140 139 138 136 135 134 134 135 136 137 138 140 141 140 139 138 137 136 137 136 136 135 135 135 135 135 134 134 133 132 131 130 129 128 127 126 125 125 124 124 123 123 123 123 124 124 123 124 124 124 124 124 124 123 122 122 122 121 119 118
127 127 128 129 130 131 132 133 134 135 136 137 138 138 139 140 140 139 138 137 136 138 139 139 139 140 142 143 142 141 140 139 138 138 136 136 136 136 136 136 136 136 136 135 134 133 132 132 130 129 128 127 127 127 126 125 125 125 126 126 125 124 125 125 126 125 124 124 124 124 124 122 120 119
124 125 126 127 127 128 129 130 131 133 133 134 135 136 137 138 139 139 139 137 137 140 142 142 141 142 143 145 145 144 143 142 141 140 139 138 137 137 137 137 137 137 137 137 137 136 136 135 134 133 131 130 130 129 128 127 127 127 128 128 128 126 126 126 126 126 125 125 125 125 125 123 122 121
122 123 123 124 125 126 127 127 129 130 131 132 133 134 135 136 137 137 138 136 134 138 143 144 144 145 145 146 147 147 146 145 145 144 142 141 140 139 138 138 138 138 138 138 138 138 138 138 137 136 134 133 133 132 131 130 130 130 130 130 130 129 128 127 127 127 126 126 126 126 126 125 124 123
121 121 122 123 124 124 125 125 126 127 128 129 130 131 132 133 134 135 135 134 132 134 140 144 143 145 147 147 148 149 149 149 148 147 146 145 143 143 142 140 140 139 139 139 139 139 139 139 139 139 137 136 136 135 134 134 133 133 133 133 133 132 131 129 128 127 127 126 126 126 126 126 126 125
118 118 119 120 121 122 123 123 124 125 126 127 127 128 129 130 131 132 133 132 130 130 134 139 141 142 146 148 148 150 151 151 151 151 149 148 147 147 145 144 143 142 141 141 140 140 140 140 140 140 139 138 138 138 137 136 137 136 135 135 135 134 133 132 130 129 128 127 127 127 127 127 127 127
115 116 116 117 118 119 120 120 121 122 123 124 125 125 126 127 128 129 130 129 128 127 129 134 137 138 142 146 147 149 151 152 152 153 153 152 151 150 149 148 146 146 145 144 143 143 142 141 140 140 140 140 139 139 139 139 139 138 137 137 136 135 135 134 133 132 131 129 128 128 128 128 129 128
111 112 113 114 116 117 117 118 119 120 120 121 122 122 123 124 124 125 126 126 125 124 124 128 132 135 138 142 144 146 149 151 152 153 154 155 155 154 153 151 150 149 149 148 147 146 145 144 143 142 141 141 141 141 141 141 140 140 139 138 137 137 137 137 136 135 134 132 131 130 129 129 130 130
108 109 110 111 113 114 115 115 116 117 118 118 118 119 120 121 121 122 122 123 122 121 121 123 127 131 134 138 141 143 147 149 151 152 153 154 155 155 155 155 154 153 152 152 150 149 148 147 146 145 144 143 143 142 142 142 141 141 140 140 139 139 138 139 139 138 137 135 134 133 131 131 131 131
106 107 108 109 110 111 111 112 113 114 115 115 115 116 117 118 119 119 119 120 120 119 119 120 123 127 130 134 138 140 144 147 149 149 151 153 154 154 155 155 155 155 155 155 154 152 151 150 149 148 147 146 145 144 144 143 143 142 141 141 141 140 140 139 140 140 139 137 137 135 134 133 133 133
103 104 105 105 106 107 107 108 110 111 112 112 113 114 115 115 116 116 116 117 118 117 117 117 119 122 126 130 133 136 140 143 145 146 149 151 152 153 153 154 154 155 155 156 156 155 155 154 153 152 151 150 149 147 146 145 145 144 142 142 142 143 142 141 140 140 139 139 139 138 137 136 135 135
99 100 100 101 101 102 103 104 106 107 108 108 109 110 112 112 112 112 112 113 114 114 114 115 117 119 122 125 129 133 136 139 140 142 145 148 149 151 152 152 153 153 154 154 155 156 157 157 156 155 154 153 152 150 149 148 147 146 144 143 142 144 144 142 141 140 139 139 139 139 139 138 137 136
94 94 95 96 96 97 99 100 101 102 102 103 104 106 107 108 108 108 109 110 111 112 112 113 114 116 117 121 126 130 133 135 137 139 141 142 144 147 149 150 150 151 153 153 154 155 156 158 158 158 157 155 154 153 152 150 150 149 147 145 143 144 146 145 143 141 139 139 140 140 140 140 139 138
89 90 90 91 93 93 95 96 97 97 97 98 98 99 101 102 102 103 105 107 109 110 111 111 112 113 113 116 122 126 129 132 134 136 137 138 139 142 145 146 147 149 151 153 153 153 154 155 156 157 157 157 156 155 154 153 152 151 150 148 146 145 147 147 146 143 141 140 140 140 140 140 140 139
85 86 87 88 89 91 91 92 92 92 92 92 92 94 96 97 98 100 101 103 105 106 106 107 108 109 110 113 118 121 125 128 130 132 133 134 135 137 140 141 142 146 150 151 152 152 152 153 153 153 154 155 155 155 155 154 154 153 152 151 148 147 148 149 149 146 143 142 141 141 140 140 139 139
82 83 85 86 86 87 87 87 87 88 87 88 89 90 92 94 95 96 98 99 100 101 101 101 103 105 107 110 113 116 119 123 125 127 128 130 131 133 135 135 137 142 147 148 147 147 148 150 150 150 150 151 153 153 154 154 154 155 155 154 152 150 150 151 152 150 147 144 143 143 142 141 140 138
79 80 81 82 83 83 83 82 83 83 84 85 86 88 89 90 91 92 94 95 96 96 96 97 98 101 103 105 108 112 115 117 119 121 123 125 126 128 129 130 132 137 143 144 142 141 143 147 148 147 147 148 150 151 151 152 153 154 156 156 156 155 153 153 154 154 150 147 145 145 143 142 140 138
76 76 77 78 78 78 78 78 79 79 81 82 83 84 85 86 87 89 90 91 92 93 93 93 94 97 99 100 103 107 109 111 112 115 117 119 120 121 123 124 126 131 138 141 139 136 138 143 145 145 144 145 146 147 148 149 150 151 153 155 157 157 156 155 156 156 154 150 147 146 144 143 141 138
73 73 73 74 75 75 76 76 76 76 77 78 79 80 81 82 84 85 87 89 89 89 90 90 91 93 94 95 98 101 103 104 106 109 111 112 113 114 116 118 121 126 132 137 136 133 133 138 141 141 141 142 143 143 143 145 146 147 149 152 155 156 156 156 157 158 157 153 149 147 145 143 141 139
70 70 70 70 72 73 74 73 72 72 73 73 75 76 77 78 79 81 84 86 86 86 86 86 87 88 89 90 92 95 97 98 100 102 103 105 106 108 109 112 116 121 127 131 131 128 129 134 137 137 137 139 139 138 139 140 142 143 145 148 151 153 154 155 157 158 158 156 152 148 145 143 141 139
66 66 67 68 70 71 71 70 69 68 68 69 71 72 74 75 76 78 80 81 81 82 81 81 82 84 86 87 88 90 93 94 95 96 96 98 101 103 104 107 111 117 122 125 126 124 124 129 133 134 134 135 135 135 135 137 138 140 142 145 148 150 152 153 154 156 156 155 153 149 146 143 140 138
63 64 65 66 68 69 68 67 66 65 65 66 68 69 71 73 74 75 76 76 77 78 78 79 80 82 84 85 86 87 89 90 91 90 90 93 97 98 99 103 108 112 116 120 121 118 118 124 129 130 130 131 131 132 134 135 135 136 139 141 145 147 149 151 152 152 152 152 151 149 145 142 140 138
60 62 63 64 64 65 65 64 63 62 62 63 64 66 68 70 71 72 71 71 73 74 75 76 77 79 81 82 82 83 84 85 85 84 85 89 91 92 95 100 104 107 111 115 115 112 111 117 122 124 125 125 126 129 131 132 133 134 135 137 140 143 146 147 147 147 148 148 148 146 143 140 138 137
58 59 60 60 60 61 61 61 60 60 60 60 62 64 65 66 67 68 68 68 69 70 71 73 74 76 78 78 78 80 80 81 81 80 81 84 86 88 91 96 99 101 106 111 109 104 105 110 115 118 119 119 121 125 127 129 130 132 133 134 136 138 141 142 141 142 143 144 143 142 140 138 137 136
56 57 57 57 56 57 57 57 57 58 58 58 59 61 62 63 64 65 65 66 65 66 68 70 71 73 74 74 75 76 77 78 78 77 78 79 82 85 89 92 94 96 101 105 102 96 98 104 110 114 115 114 116 120 123 124 126 128 130 131 132 134 135 136 136 137 138 138 137 137 137 137 137 136
54 55 54 53 53 53 54 54 55 55 56 56 57 58 59 60 61 62 63 63 63 63 64 66 67 69 70 70 71 72 72 74 75 74 75 76 78 82 86 89 90 92 97 100 94 90 93 100 106 111 111 109 112 115 118 120 122 124 125 127 129 130 130 129 130 131 132 132 132 133 134 135 136 136
52 52 52 51 50 50 51 51 52 52 53 54 54 55 56 57 58 59 60 60 61 61 61 62 63 64 65 66 68 68 69 71 71 72 73 74 76 79 83 86 87 89 93 91 86 85 90 97 103 107 106 105 108 111 113 115 117 119 121 123 124 125 124 124 125 126 127 128 129 130 131 133 134 133
50 49 49 49 48 48 48 48 49 49 50 51 51 52 53 55 56 57 57 57 58 58 58 58 59 60 61 62 63 65 66 68 69 71 71 72 73 75 79 81 82 84 85 81 78 82 89 95 100 102 100 100 103 107 109 111 112 114 116 118 120 120 121 121 122 122 123 125 127 128 129 129 130 130
48 47 46 46 46 46 46 46 46 46 47 48 48 49 51 52 54 55 55 54 54 54 54 55 56 56 57 58 59 61 63 65 67 69 69 69 70 72 74 76 78 79 76 71 72 81 88 93 95 95 94 96 99 102 105 107 108 110 112 115 117 119 119 119 120 120 121 123 124 125 126 126 126 127
45 45 45 44 44 44 44 44 43 44 44 45 46 47 48 50 51 52 53 52 51 51 52 52 53 53 53 54 56 58 60 62 64 66 67 67 67 68 69 71 73 73 69 66 71 80 86 88 87 88 89 91 94 97 100 103 105 107 110 112 114 115 115 115 116 117 118 119 121 121 122 122 123 123
42 43 43 42 42 42 42 41 41 41 42 42 43 44 46 47 48 49 50 50 50 49 49 49 50 50 50 51 53 55 58 60 61 63 65 66 65 64 64 66 68 68 65 65 71 78 81 81 81 82 84 87 90 94 97 100 102 103 105 107 108 108 108 109 110 112 114 115 116 117 117 118 118 119
41 41 41 40 40 40 40 39 39 39 39 40 41 42 43 45 46 47 48 48 48 48 47 47 47 47 47 48 51 53 56 57 58 60 62 63 62 62 61 62 63 63 63 65 70 73 75 75 76 78 81 84 88 91 93 95 96 97 98 100 101 102 103 104 105 107 108 110 111 112 113 114 114 114
40 39 38 37 37 37 37 36 36 36 36 37 38 39 40 42 43 44 46 46 46 45 45 44 44 44 44 46 49 51 53 55 56 57 59 60 60 60 60 60 59 60 62 64 66 68 70 71 72 75 78 81 84 86 88 89 91 92 93 95 97 99 100 100 101 102 103 105 106 108 110 110 111 111
39 38 37 36 35 35 34 34 33 32 32 33 35 36 37 38 40 42 44 44 43 42 42 41 41 41 42 44 47 49 51 52 53 55 56 57 57 57 58 57 57 58 60 62 63 64 66 68 69 72 75 78 80 81 83 85 86 88 90 92 94 95 96 97 98 99 99 101 103 104 106 107 107 108
37 36 36 36 36 36 35 34 33 32 32 32 32 32 33 34 36 39 41 42 42 40 39 38 38 39 40 42 45 47 48 49 50 51 53 54 54 54 55 55 55 56 58 59 61 62 64 65 67 70 72 74 76 78 80 82 83 85 87 89 90 92 93 94 94 95 96 97 99 100 101 102 104 105
35 34 35 36 36 36 36 35 34 33 33 32 31 31 30 31 33 35 37 39 40 39 37 36 36 36 38 40 43 44 45 46 47 48 49 50 51 51 52 53 54 54 56 57 59 60 62 63 65 67 69 71 74 76 77 79 80 82 84 85 87 88 89 90 91 92 93 94 94 96 97 99 100 102
33 33 33 34 35 35 35 34 33 33 32 32 31 30 30 30 31 32 33 35 37 37 36 35 34 34 36 38 40 42 43 43 44 45 47 47 48 48 49 50 51 52 53 54 56 58 60 62 63 65 67 69 71 73 74 76 78 79 80 81 82 83 85 86 87 88 89 90 91 92 94 95 97 99
31 31 30 30 31 32 33 32 32 31 31 31 30 29 29 29 29 29 30 32 33 34 34 34 33 33 34 36 38 40 41 41 42 43 44 44 45 46 47 47 48 49 50 51 53 55 57 59 61 63 65 66 68 70 72 74 75 76 77 77 78 79 81 82 83 85 86 87 88 90 91 93 94 95
27 27 27 27 28 29 29 29 29 29 29 29 28 28 27 27 27 27 28 29 30 31 32 32 32 32 32 33 35 37 38 39 39 40 41 42 43 44 45 46 46 47 48 50 52 54 55 57 59 60 62 63 64 66 68 70 71 71 72 74 74 75 77 78 80 81 82 84 85 87 88 89 91 92
23 23 24 24 25 26 26 26 26 26 27 27 26 26 26 25 25 26 26 27 27 28 29 30 30 30 30 31 33 34 35 36 36 37 39 40 42 42 43 44 45 46 47 48 49 50 52 53 54 55 57 58 60 62 63 65 67 68 70 71 72 72 73 74 76 77 79 80 82 84 86 88 89 90
22 21 22 23 24 24 25 24 24 24 24 24 24 24 24 24 24 24 24 24 25 26 27 27 28 28 28 29 31 32 33 33 34 35 37 39 40 41 42 43 44 44 44 45 46 47 49 50 51 52 53 55 57 59 61 63 65 67 68 69 70 70 71 72 73 74 76 78 80 82 83 85 86 87
22 22 22 22 23 23 23 22 22 22 22 22 22 22 22 22 22 22 21 22 22 23 24 25 25 26 26 27 29 30 31 31 32 33 34 37 38 39 39 40 41 41 42 42 44 45 46 48 50 52 53 55 57 58 60 62 63 64 65 66 66 67 68 69 70 72 73 75 77 78 80 81 83 85
21 20 20 20 21 21 21 20 20 20 20 20 20 20 20 20 20 20 20 20 20 21 22 23 23 24 25 26 27 28 29 30 30 31 32 34 36 36 37 38 39 40 41 42 42 44 46 48 50 52 53 55 56 57 58 60 60 61 62 63 64 65 66 67 68 69 71 72 74 75 77 79 81 82
20 19 19 19 19 19 19 19 18 18 18 18 18 18 18 18 18 18 18 18 19 19 20 21 22 23 24 25 26 27 27 27 28 29 30 32 34 35 36 37 38 39 40 41 42 44 46 47 49 50 51 53 54 55 56 57 59 60 61 62 63 64 65 66 67 68 70 71 72 73 75 76 77 78
19 18 18 17 17 17 17 17 17 17 16 16 16 16 16 16 16 16 17 17 18 18 19 19 21 22 23 24 24 24 25 26 27 28 30 31 33 34 35 37 38 39 40 41 43 44 45 45 46 48 49 51 51 53 54 56 57 59 60 61 61 62 63 64 65 66 67 68 69 70 71 73 74 75
Wind_Direction
260 260 259 258 258 257 256 256 255 254 254 253 253 252 252 251 250 249 248 247 247 247 248 249 251 252 253 253 252 252 251 250 250 249 249 249 249 248 248 248 248 248 248 247 247 246 246 246 245 245 245 244 244 243 243 243 243 243 243 242 241 241 241 242 242 242 242 242 242 242 242 241 240 239
261 260 260 259 258 257 257 256 256 255 254 254 253 252 252 251 250 249 248 247 247 247 247 247 248 249 251 252 252 252 252 251 250 250 249 248 248 248 248 248 248 248 248 248 247 247 246 246 245 245 244 244 244 244 243 243 243 243 243 243 242 241 241 241 241 241 242 242 242 242 242 242 241 240
261 261 260 259 259 258 257 257 256 256 255 254 253 253 252 251 251 250 248 247 246 247 247 246 246 247 248 250 251 251 251 251 251 250 249 249 248 248 247 247 247 247 247 247 247 247 247 246 246 245 244 244 244 244 243 243 243 243 243 243 243 242 241 241 241 241 241 241 241 242 242 242 241 241
262 262 261 260 260 259 258 257 256 256 255 254 254 253 253 252 251 250 249 248 246 246 247 247 246 246 246 247 249 250 250 250 250 250 250 249 249 248 247 247 247 247 247 247 247 247 247 247 247 246 245 244 244 243 243 243 242 242 243 243 243 243 242 241 241 241 241 241 241 241 242 242 242 241
262 262 261 261 260 260 259 258 257 256 256 255 254 253 253 252 251 250 249 248 246 245 247 247 247 247 247 246 246 247 248 249 250 250 250 249 249 249 248 247 247 246 246 246 246 246 246 246 246 246 246 245 244 244 243 243 242 242 242 242 243 243 242 242 241 241 241 241 241 241 242 242 242 242
263 262 262 261 261 260 260 259 258 257 257 256 255 254 253 252 252 251 250 248 246 245 246 247 247 247 248 247 247 247 247 247 248 249 249 249 249 248 248 248 247 247 246 246 245 245 245 245 245 246 246 246 245 245 244 243 243 242 242 242 242 243 243 243 242 241 241 241 241 241 241 242 242 242
264 263 262 262 261 261 260 259 259 258 257 257 256 255 254 253 252 252 251 249 248 246 245 246 247 246 247 248 247 247 247 247 247 247 248 248 248 248 248 248 247 247 247 246 245 245 245 245 245 245 245 245 245 245 245 244 243 243 242 242 242 242 243 243 242 242 241 240 240 240 241 241 241 242
263 263 262 262 261 261 260 259 259 258 258 257 257 256 256 255 254 253 252 251 249 247 246 245 246 246 246 247 247 247 247 247 247 246 247 247 247 247 247 247 247 247 247 246 246 246 245 245 244 244 244 244 244 244 244 244 244 244 243 242 241 241 242 242 242 242 241 241 240 240 240 240 241 241
263 262 261 260 260 260 259 259 259 258 258 257 257 256 256 255 255 254 253 252 251 249 247 246 246 246 245 245 246 246 246 247 247 246 246 246 246 247 247 247 247 246 246 246 246 246 246 245 245 244 243 243 243 243 243 244 244 244 244 243 242 241 241 241 242 242 242 241 240 240 239 239 240 240
262 262 261 260 260 259 259 259 259 258 258 258 257 257 256 255 255 254 253 253 251 250 248 246 246 246 245 245 245 245 245 245 245 245 246 246 246 246 246 246 246 246 246 246 246 246 246 245 245 245 244 243 243 243 243 243 243 243 243 243 243 242 241 240 241 241 241 241 241 240 239 239 239 239
262 262 262 261 261 261 260 259 259 258 258 258 257 257 256 256 255 254 254 253 252 250 249 247 246 246 246 245 245 245 245 244 244 244 244 245 245 245 245 245 245 245 245 245 246 246 246 245 245 245 245 244 244 243 243 243 243 242 242 242 243 243 242 241 240 240 240 241 241 241 240 239 239 239
263 263 262 262 262 261 261 260 259 259 258 258 258 257 257 257 256 256 255 254 254 252 250 249 247 246 245 245 246 245 245 245 244 244 243 244 244 245 245 245 245 245 245 245 245 245 245 245 245 245 244 244 244 244 243 243 243 243 242 242 242 243 243 242 241 240 240 240 240 240 240 240 240 239
264 264 263 263 262 261 261 260 260 259 258 258 258 257 257 257 257 256 256 255 254 253 251 250 248 247 245 245 245 245 245 245 245 244 243 243 243 244 244 244 244 244 245 245 244 244 244 244 244 244 244 244 244 244 244 244 243 243 243 242 241 242 243 243 242 241 240 240 240 240 240 240 240 240
265 264 263 263 262 261 260 260 259 259 258 258 258 258 257 257 256 255 255 254 253 252 251 250 249 248 246 245 245 245 245 245 245 245 244 243 243 243 244 244 244 244 244 244 244 244 244 243 243 244 244 244 244 244 244 244 244 244 244 243 242 242 243 243 243 241 241 240 240 240 239 239 239 239
265 264 263 262 262 261 260 260 260 259 259 259 258 258 258 257 256 255 254 253 252 251 251 250 250 248 247 246 245 245 245 245 245 244 244 244 243 243 243 243 244 244 244 243 243 244 244 244 243 243 243 244 244 244 243 244 244 244 244 244 243 243 243 244 244 242 241 240 240 240 240 239 239 239
264 264 263 262 262 261 261 261 261 261 260 260 259 258 257 256 256 255 254 253 253 252 251 250 250 249 247 247 246 245 245 245 245 244 244 244 243 243 243 243 243 244 245 244 243 243 244 244 244 244 243 243 243 243 243 243 243 243 244 244 244 244 243 244 244 243 242 241 240 240 240 240 239 239
265 264 263 263 263 262 262 261 261 261 260 259 258 257 257 256 256 255 255 254 254 253 251 250 249 248 247 246 246 246 245 245 245 245 244 244 244 243 243 243 242 243 245 245 244 243 243 244 245 244 243 243 243 243 243 242 242 242 243 243 244 244 244 244 244 245 244 242 241 241 240 240 240 239
266 265 265 264 264 263 262 261 260 259 259 258 258 257 257 257 256 256 255 255 254 253 252 250 249 248 247 246 246 246 245 245 245 245 245 244 244 243 243 243 242 243 244 245 244 243 243 243 244 244 244 243 243 242 242 242 242 242 242 242 243 243 243 244 244 245 245 244 242 241 241 241 240 240
268 267 266 266 265 264 262 261 260 259 258 258 258 257 257 257 256 256 255 255 254 253 252 251 250 249 248 247 246 246 246 245 245 245 245 245 244 244 243 243 243 242 243 244 244 243 242 243 244 244 244 243 243 243 242 242 242 241 241 242 242 242 243 243 244 244 245 245 244 243 242 241 240 240
269 268 268 267 266 265 263 262 261 260 259 259 258 257 257 256 255 255 255 255 254 253 253 252 251 251 250 248 247 247 247 245 244 244 244 245 244 244 243 243 242 242 243 243 243 242 241 242 243 243 243 243 243 243 242 242 242 241 241 241 242 242 242 242 243 243 244 245 245 244 243 242 241 240
269 269 268 267 266 265 264 263 262 261 260 259 258 257 257 256 255 254 254 254 254 254 253 252 252 251 250 249 247 246 246 245 244 243 242 243 243 242 242 241 242 242 242 242 242 241 240 241 242 242 242 242 242 243 242 242 241 241 240 240 241 241 242 242 242 242 243 244 245 245 244 243 242 241
269 269 268 267 266 266 265 265 264 262 261 260 259 258 257 256 255 254 254 254 254 253 253 252 251 250 249 249 247 246 245 245 244 243 242 241 241 241 240 240 240 241 241 242 241 240 239 240 242 242 241 241 241 241 241 241 241 240 239 239 240 240 241 241 241 242 242 243 244 245 245 244 243 242
269 268 267 266 266 266 266 266 265 263 262 260 259 258 258 257 256 255 254 253 252 252 252 251 251 250 249 249 249 248 247 246 245 243 242 242 241 240 240 240 240 240 240 241 241 239 239 240 241 242 241 241 241 241 241 241 241 240 240 239 239 239 240 240 241 241 242 243 243 244 244 244 244 243
270 269 268 267 266 266 266 266 265 263 262 260 260 259 258 258 257 256 255 253 252 251 251 251 250 250 249 249 248 248 248 247 245 242 241 241 241 239 238 238 239 239 240 241 240 239 238 239 241 241 241 240 240 241 241 241 240 240 240 240 239 239 240 240 240 241 241 242 243 243 244 244 244 243
271 270 269 268 267 267 266 265 265 264 262 260 259 259 258 258 258 257 256 254 252 251 250 250 250 250 250 249 249 248 248 247 246 244 241 240 240 240 239 238 238 238 239 240 240 238 237 238 240 240 240 239 239 240 240 240 240 240 240 240 240 240 240 240 240 241 241 242 242 243 243 244 244 243
272 271 270 269 268 267 266 265 265 264 263 262 260 259 259 258 258 257 256 255 254 251 250 249 249 249 249 249 249 248 247 247 246 245 242 240 239 239 239 239 238 237 238 239 238 236 236 237 239 239 239 238 238 239 239 239 240 240 240 240 241 241 241 240 240 241 241 242 242 242 242 242 243 242
273 272 271 270 268 266 265 264 264 263 263 262 262 261 260 259 258 257 256 255 254 253 251 250 249 248 248 248 249 248 248 247 245 244 242 240 239 238 239 239 238 237 238 238 236 235 235 236 237 238 238 237 237 238 238 238 239 239 240 240 241 241 241 241 241 240 241 241 241 241 241 241 242 242
274 273 271 270 268 267 265 264 263 262 262 262 261 261 261 260 259 258 257 256 255 254 253 251 250 248 247 246 247 247 247 247 246 244 241 240 239 238 239 239 239 238 238 237 236 235 235 235 236 237 237 236 236 237 237 237 237 238 239 240 240 240 240 240 240 240 240 240 240 240 240 240 241 241
275 273 271 270 269 267 266 265 264 263 262 261 261 261 261 260 260 260 259 257 256 255 253 252 250 248 247 246 245 245 245 245 246 245 243 240 239 238 239 240 239 238 237 235 234 235 234 234 235 236 236 235 235 236 236 236 236 237 237 237 238 238 238 238 238 238 238 239 239 239 240 240 240 240
275 274 272 270 269 268 266 265 264 264 263 262 261 261 260 260 260 260 260 259 257 255 253 251 250 248 247 246 245 243 243 243 244 245 245 242 240 238 238 239 239 239 236 232 232 234 234 234 234 234 234 234 234 235 235 236 236 236 236 236 237 237 237 237 237 237 237 238 238 239 239 239 240 240
276 274 273 271 270 269 268 267 265 264 263 263 262 261 260 259 259 259 259 259 257 255 253 251 250 248 246 245 244 243 242 241 241 242 244 243 241 239 238 237 238 238 235 232 231 233 234 233 232 232 232 233 233 233 234 235 235 235 236 237 238 238 238 238 238 237 237 237 238 239 239 239 239 239
277 275 274 273 272 270 269 268 266 264 263 262 260 259 258 258 258 258 258 257 256 255 254 252 249 247 245 243 242 242 241 240 240 240 241 242 241 240 238 237 236 235 234 232 231 232 233 232 231 231 231 231 232 233 233 234 234 235 235 236 237 238 238 238 238 238 238 238 238 238 239 239 239 239
278 277 275 274 273 271 270 268 266 264 261 259 257 256 256 256 257 257 257 257 256 255 253 252 249 247 244 242 241 240 240 239 239 239 239 239 239 239 238 236 235 233 233 232 231 232 232 231 230 230 230 230 231 232 232 233 233 233 234 234 235 235 236 236 236 237 237 237 238 238 238 238 239 239
282 282 281 280 278 277 274 272 270 267 264 261 257 255 253 253 255 256 257 257 257 255 253 251 248 246 243 241 240 239 239 238 237 238 238 238 237 237 237 236 234 232 231 231 230 230 230 229 228 228 228 229 229 229 230 231 231 232 232 232 233 233 233 234 234 235 235 235 236 237 237 237 238 238
283 284 284 284 283 282 280 279 277 275 272 268 263 258 255 253 253 254 256 257 257 256 254 250 247 245 242 240 239 239 238 237 236 236 237 237 236 236 235 234 233 232 231 230 229 228 228 227 227 227 227 227 227 227 228 229 229 230 230 231 231 232 232 232 232 233 233 234 234 235 236 236 237 237
281 281 281 281 281 280 280 280 279 278 276 273 269 264 259 256 253 253 253 255 256 256 255 252 248 244 241 239 239 239 238 236 235 235 235 235 235 234 234 233 232 231 230 229 229 227 226 225 225 225 225 225 225 225 226 227 227 228 229 229 230 230 231 231 231 231 232 233 233 234 234 235 236 236
279 278 276 276 277 277 277 277 277 276 275 273 270 267 263 259 256 253 252 252 254 255 254 252 249 244 240 238 238 238 238 236 234 233 233 233 233 233 232 232 231 230 229 229 228 227 226 224 224 224 224 224 224 224 224 225 226 226 227 228 229 229 230 230 230 230 231 231 232 232 233 233 234 235
275 274 272 272 273 274 275 275 275 274 273 271 269 267 265 262 259 255 252 251 251 252 252 251 249 244 240 237 237 237 237 236 234 233 232 231 230 230 230 230 229 228 227 227 226 226 225 224 223 223 223 223 223 223 223 224 224 225 226 226 227 228 228 229 229 229 230 230 230 231 232 232 233 234
274 275 276 275 275 275 275 274 273 272 271 271 269 268 265 263 260 256 253 250 248 248 248 248 246 244 240 237 235 235 235 235 233 232 230 228 227 227 227 226 226 225 224 224 224 224 223 223 223 223 222 222 222 222 223 224 224 224 225 225 225 226 227 227 228 228 228 229 230 230 231 232 232 233
280 280 280 281 280 278 277 276 274 272 271 270 269 268 265 262 259 256 253 250 247 246 245 244 243 241 239 236 234 233 233 233 231 229 228 226 224 224 223 223 223 222 222 222 222 222 222 222 222 222 222 222 221 221 221 222 222 222 223 223 224 224 225 226 226 227 227 227 228 229 229 230 231 231
290 288 287 285 283 281 279 278 276 274 272 271 269 268 266 263 260 256 253 250 247 244 242 240 239 237 236 234 232 231 229 228 227 226 226 225 223 221 221 221 220 220 219 219 220 220 220 219 218 218 219 219 218 218 218 218 219 220 220 221 221 222 222 223 224 224 225 226 226 227 228 229 230 231
294 292 289 287 285 283 282 280 278 275 273 271 269 268 265 263 260 257 253 250 246 242 239 237 235 233 232 231 229 227 225 223 222 222 223 223 221 219 218 219 218 217 216 215 216 216 216 216 215 214 214 215 215 216 216 217 218 219 219 219 220 220 220 221 222 223 224 225 225 226 227 228 229 229
293 292 290 289 287 285 284 283 280 277 275 272 269 267 264 261 259 256 252 249 244 239 236 233 231 230 228 227 225 223 221 219 218 217 219 220 219 216 215 215 214 213 212 211 212 212 212 212 212 212 213 213 213 214 214 215 216 217 217 218 218 218 219 219 220 221 222 223 224 225 226 227 228 228
296 295 294 292 290 288 287 284 282 278 275 272 269 266 263 259 256 253 249 246 241 236 233 230 228 226 224 223 220 219 217 216 214 213 214 215 214 212 211 211 211 209 208 208 208 209 210 210 211 211 211 212 212 212 212 213 213 214 215 215 216 216 217 218 218 219 220 221 222 223 224 225 227 228
300 299 298 295 292 290 289 286 282 278 274 271 268 264 260 256 253 250 247 243 238 234 230 228 226 224 222 219 217 215 214 213 211 210 211 211 211 210 209 208 207 206 205 205 206 207 208 208 209 209 209 210 210 211 211 212 212 213 214 214 215 216 216 217 218 218 219 220 221 222 224 225 226 227